HAZ2933 ZSHC-ZYTL

Flight info

Callsign HAZ2933
Flight time 1h 45m
Altitude 39100
Route SUPAR8D SUPAR B221 XDX W174 FD W172 IGDEG W173 NIXEP NIX18A
Aircraft A339/H-SADE1E2E3GHIJ3J5M1P2RWXY/LB2D1

Departure

Time 2026-05-05 03:04
Airport Hangzhou Xiaoshan International Airport (ZSHC)

Arrival

Time 2026-05-05 04:50
Airport Dalian Zhoushuizi International Airport (ZYTL)
Time Latitude Longitude Altitude Speed Heading
2026-05-05 02:36 30.24183 120.42762 37 ft 0 kts 191°
2026-05-05 02:56 30.24194 120.42765 37 ft 2 kts 191°
2026-05-05 02:56 30.24207 120.42768 37 ft 0 kts 191°
2026-05-05 02:56 30.24219 120.42770 37 ft 2 kts 179°
2026-05-05 02:56 30.24233 120.42767 37 ft 2 kts 156°
2026-05-05 02:57 30.24246 120.42758 37 ft 2 kts 137°
2026-05-05 02:57 30.24256 120.42745 37 ft 2 kts 118°
2026-05-05 02:57 30.24262 120.42729 37 ft 2 kts 98°
2026-05-05 02:57 30.24262 120.42712 37 ft 2 kts 79°
2026-05-05 02:58 30.24259 120.42700 37 ft 0 kts 66°
2026-05-05 02:58 30.24258 120.42696 37 ft 0 kts 65°
2026-05-05 02:59 30.24259 120.42699 37 ft 1 kts 65°
2026-05-05 02:59 30.24270 120.42726 37 ft 7 kts 64°
2026-05-05 02:59 30.24320 120.42793 37 ft 14 kts 15°
2026-05-05 03:00 30.24417 120.42760 37 ft 15 kts 337°
2026-05-05 03:00 30.24499 120.42799 37 ft 14 kts 59°
2026-05-05 03:00 30.24546 120.42902 37 ft 14 kts 63°
2026-05-05 03:00 30.24593 120.43012 37 ft 15 kts 63°
2026-05-05 03:01 30.24644 120.43126 37 ft 16 kts 62°
2026-05-05 03:01 30.24697 120.43245 37 ft 16 kts 63°
2026-05-05 03:01 30.24750 120.43364 37 ft 17 kts 63°
2026-05-05 03:01 30.24804 120.43489 37 ft 17 kts 62°
2026-05-05 03:02 30.24861 120.43616 37 ft 17 kts 63°
2026-05-05 03:02 30.24918 120.43744 37 ft 18 kts 63°
2026-05-05 03:02 30.24975 120.43874 37 ft 18 kts 63°
2026-05-05 03:02 30.25022 120.43982 37 ft 13 kts 60°
2026-05-05 03:03 30.25102 120.44013 37 ft 13 kts 350°
2026-05-05 03:03 30.25179 120.43954 37 ft 13 kts 293°
2026-05-05 03:03 30.25157 120.43848 37 ft 14 kts 243°
2026-05-05 03:03 30.25057 120.43621 37 ft 62 kts 243°
2026-05-05 03:04 30.24760 120.42961 37 ft 121 kts 244°
2026-05-05 03:04 30.24294 120.41910 91 ft 164 kts 243°
2026-05-05 03:04 30.23762 120.40691 393 ft 181 kts 243°
2026-05-05 03:04 30.23175 120.39312 760 ft 199 kts 242°
2026-05-05 03:05 30.22548 120.37872 1409 ft 202 kts 240°
2026-05-05 03:05 30.21903 120.36442 2066 ft 204 kts 240°
2026-05-05 03:05 30.21249 120.34995 2712 ft 206 kts 239°
2026-05-05 03:05 30.20589 120.33533 3354 ft 207 kts 240°
2026-05-05 03:06 30.19923 120.32054 3939 ft 212 kts 240°
2026-05-05 03:06 30.19222 120.30495 4317 ft 230 kts 240°
2026-05-05 03:06 30.18459 120.28796 4703 ft 248 kts 240°
2026-05-05 03:06 30.17639 120.26965 5159 ft 262 kts 240°
2026-05-05 03:07 30.16793 120.25071 5809 ft 267 kts 240°
2026-05-05 03:07 30.15937 120.23171 6493 ft 270 kts 238°
2026-05-05 03:07 30.14731 120.21552 7176 ft 268 kts 213°
2026-05-05 03:07 30.13012 120.20730 7747 ft 274 kts 187°
2026-05-05 03:08 30.11108 120.20879 8400 ft 278 kts 161°
2026-05-05 03:08 30.09366 120.21802 9092 ft 282 kts 153°
2026-05-05 03:08 30.07589 120.22861 9748 ft 288 kts 153°
2026-05-05 03:08 30.05798 120.23917 10417 ft 293 kts 154°
2026-05-05 03:09 30.03977 120.24983 11093 ft 297 kts 153°
2026-05-05 03:09 30.02338 120.26409 11736 ft 303 kts 129°
2026-05-05 03:09 30.01366 120.28570 12416 ft 308 kts 103°
2026-05-05 03:09 30.01273 120.31039 12901 ft 318 kts 77°
2026-05-05 03:10 30.02094 120.33427 13275 ft 330 kts 60°
2026-05-05 03:10 30.03230 120.35841 13594 ft 348 kts 60°
2026-05-05 03:10 30.04391 120.38329 13893 ft 365 kts 60°
2026-05-05 03:10 30.05600 120.40971 14196 ft 381 kts 61°
2026-05-05 03:11 30.06842 120.43732 14711 ft 390 kts 61°
2026-05-05 03:11 30.08078 120.46505 15385 ft 394 kts 61°
2026-05-05 03:11 30.09342 120.49351 16043 ft 399 kts 61°
2026-05-05 03:11 30.10605 120.52195 16680 ft 404 kts 62°
2026-05-05 03:12 30.11702 120.55203 17258 ft 410 kts 76°
2026-05-05 03:12 30.11834 120.58495 17858 ft 414 kts 99°
2026-05-05 03:12 30.10995 120.61643 18520 ft 414 kts 114°
2026-05-05 03:12 30.09847 120.64700 19194 ft 418 kts 115°
2026-05-05 03:13 30.08718 120.67763 20034 ft 416 kts 115°
2026-05-05 03:13 30.07618 120.70813 20727 ft 418 kts 114°
2026-05-05 03:13 30.06504 120.73940 21308 ft 422 kts 114°
2026-05-05 03:13 30.05392 120.77077 21831 ft 427 kts 114°
2026-05-05 03:14 30.04261 120.80270 22369 ft 431 kts 114°
2026-05-05 03:14 30.03473 120.83618 22849 ft 440 kts 96°
2026-05-05 03:14 30.03720 120.87093 23388 ft 445 kts 75°
2026-05-05 03:14 30.04985 120.90348 23882 ft 446 kts 54°
2026-05-05 03:15 30.06869 120.93245 24282 ft 451 kts 50°
2026-05-05 03:15 30.08814 120.96109 24641 ft 458 kts 50°
2026-05-05 03:15 30.10759 120.99031 25020 ft 464 kts 51°
2026-05-05 03:15 30.12713 121.02023 25397 ft 469 kts 51°
2026-05-05 03:16 30.14658 121.05029 25742 ft 474 kts 51°
2026-05-05 03:16 30.16649 121.08122 26095 ft 480 kts 51°
2026-05-05 03:16 30.18637 121.11220 26449 ft 484 kts 51°
2026-05-05 03:16 30.20644 121.14349 26768 ft 489 kts 51°
2026-05-05 03:17 30.22683 121.17531 27106 ft 494 kts 51°
2026-05-05 03:17 30.24739 121.20737 27438 ft 499 kts 52°
2026-05-05 03:17 30.26736 121.24037 27751 ft 504 kts 54°
2026-05-05 03:17 30.28669 121.27415 28071 ft 509 kts 55°
2026-05-05 03:18 30.30595 121.30845 28401 ft 513 kts 55°
2026-05-05 03:18 30.32536 121.34303 28722 ft 517 kts 55°
2026-05-05 03:18 30.34517 121.37827 29042 ft 521 kts 55°
2026-05-05 03:18 30.36494 121.41325 29355 ft 525 kts 54°
2026-05-05 03:19 30.40549 121.48431 29920 ft 533 kts 54°
2026-05-05 03:19 30.42589 121.52010 30237 ft 536 kts 54°
2026-05-05 03:19 30.44636 121.55605 30579 ft 538 kts 54°
2026-05-05 03:20 30.46690 121.59218 30893 ft 540 kts 54°
2026-05-05 03:20 30.48773 121.62891 31214 ft 542 kts 54°
2026-05-05 03:20 30.50839 121.66534 31511 ft 544 kts 55°
2026-05-05 03:20 30.52914 121.70200 31904 ft 544 kts 55°
2026-05-05 03:21 30.54964 121.73826 32279 ft 543 kts 55°
2026-05-05 03:21 30.57034 121.77485 32603 ft 544 kts 55°
2026-05-05 03:21 30.59111 121.81167 32982 ft 543 kts 55°
2026-05-05 03:21 30.61172 121.84820 33382 ft 542 kts 55°
2026-05-05 03:22 30.63229 121.88471 33765 ft 541 kts 55°
2026-05-05 03:22 30.65279 121.92114 34157 ft 539 kts 55°
2026-05-05 03:22 30.67329 121.95758 34521 ft 539 kts 55°
2026-05-05 03:22 30.69375 121.99398 34855 ft 539 kts 55°
2026-05-05 03:23 30.71397 122.03003 35123 ft 540 kts 55°
2026-05-05 03:23 30.73469 122.06697 35157 ft 548 kts 55°
2026-05-05 03:23 30.78148 122.13736 35159 ft 556 kts 41°
2026-05-05 03:24 30.84308 122.19136 35158 ft 555 kts 22°
2026-05-05 03:24 30.91462 122.22398 35189 ft 551 kts
2026-05-05 03:25 30.95096 122.23646 35432 ft 550 kts
2026-05-05 03:25 30.98784 122.24912 35843 ft 546 kts
2026-05-05 03:25 31.02410 122.26157 36285 ft 541 kts
2026-05-05 03:25 31.05983 122.27383 36715 ft 537 kts
2026-05-05 03:26 31.09572 122.28616 37158 ft 531 kts
2026-05-05 03:26 31.13104 122.29832 37610 ft 526 kts
2026-05-05 03:26 31.16544 122.31017 38068 ft 520 kts
2026-05-05 03:26 31.19988 122.32207 38632 ft 513 kts
2026-05-05 03:27 31.23421 122.33396 39201 ft 507 kts
2026-05-05 03:27 31.26763 122.34557 39772 ft 500 kts
2026-05-05 03:27 31.30061 122.35709 40358 ft 492 kts
2026-05-05 03:27 31.33303 122.36847 40930 ft 484 kts
2026-05-05 03:28 31.36484 122.37969 41505 ft 475 kts
2026-05-05 03:28 31.39647 122.39094 42095 ft 466 kts
2026-05-05 03:28 31.42695 122.40186 42660 ft 456 kts
2026-05-05 03:28 31.45701 122.41273 43217 ft 446 kts
2026-05-05 03:29 31.48632 122.42343 43737 ft 435 kts
2026-05-05 03:29 31.51477 122.43392 44215 ft 425 kts
2026-05-05 03:29 31.54235 122.44420 44660 ft 415 kts
2026-05-05 03:29 31.56960 122.45447 45043 ft 405 kts
2026-05-05 03:30 31.59625 122.46459 45239 ft 401 kts
2026-05-05 03:30 31.62288 122.47467 45003 ft 406 kts
2026-05-05 03:30 31.65009 122.48473 44678 ft 412 kts
2026-05-05 03:30 31.67770 122.49339 44452 ft 413 kts
2026-05-05 03:31 31.70562 122.49673 44195 ft 397 kts 341°
2026-05-05 03:31 31.73128 122.48727 43364 ft 388 kts 316°
2026-05-05 03:31 31.75171 122.46641 42554 ft 390 kts 308°
2026-05-05 03:31 31.77231 122.44500 41739 ft 410 kts 315°
2026-05-05 03:32 31.79659 122.42614 40732 ft 431 kts 322°
2026-05-05 03:32 31.82364 122.41032 39544 ft 447 kts 326°
2026-05-05 03:32 31.85209 122.39481 38544 ft 454 kts 327°
2026-05-05 03:32 31.88119 122.37914 37773 ft 457 kts 327°
2026-05-05 03:33 31.90997 122.36365 37294 ft 455 kts 327°
2026-05-05 03:33 31.93867 122.34815 37158 ft 455 kts 327°
2026-05-05 03:33 31.99627 122.31686 37173 ft 458 kts 327°
2026-05-05 03:34 32.05414 122.28531 37158 ft 460 kts 327°
2026-05-05 03:34 32.11242 122.25349 37154 ft 459 kts 327°
2026-05-05 03:35 32.17015 122.22195 37165 ft 458 kts 327°
2026-05-05 03:35 32.22774 122.19036 37149 ft 458 kts 327°
2026-05-05 03:36 32.28573 122.15852 37155 ft 459 kts 327°
2026-05-05 03:36 32.34332 122.12688 37150 ft 459 kts 328°
2026-05-05 03:37 32.40125 122.09499 37149 ft 459 kts 328°
2026-05-05 03:37 32.45937 122.06295 37143 ft 460 kts 328°
2026-05-05 03:38 32.51705 122.03113 37151 ft 457 kts 328°
2026-05-05 03:38 32.57447 121.99940 37149 ft 459 kts 328°
2026-05-05 03:39 32.63238 121.96733 37149 ft 458 kts 328°
2026-05-05 03:39 32.69025 121.93525 37149 ft 458 kts 328°
2026-05-05 03:40 32.74774 121.90333 37141 ft 459 kts 328°
2026-05-05 03:40 32.80566 121.87112 37133 ft 458 kts 328°
2026-05-05 03:41 32.86326 121.83907 37134 ft 458 kts 328°
2026-05-05 03:41 32.92093 121.80690 37133 ft 458 kts 328°
2026-05-05 03:42 32.97886 121.77454 37131 ft 458 kts 328°
2026-05-05 03:42 33.03629 121.74242 37137 ft 458 kts 329°
2026-05-05 03:43 33.09409 121.71004 37131 ft 458 kts 329°
2026-05-05 03:43 33.15157 121.67779 37127 ft 458 kts 329°
2026-05-05 03:44 33.20903 121.64546 37136 ft 456 kts 329°
2026-05-05 03:44 33.26687 121.61365 37125 ft 457 kts 331°
2026-05-05 03:45 33.32515 121.58363 37120 ft 457 kts 331°
2026-05-05 03:45 33.38365 121.55360 37133 ft 457 kts 331°
2026-05-05 03:46 33.44190 121.52364 37121 ft 457 kts 331°
2026-05-05 03:46 33.50020 121.49359 37130 ft 456 kts 332°
2026-05-05 03:47 33.55835 121.46354 37116 ft 456 kts 332°
2026-05-05 03:47 33.61647 121.43347 37114 ft 456 kts 332°
2026-05-05 03:48 33.67463 121.40338 37125 ft 456 kts 332°
2026-05-05 03:48 33.73380 121.37522 37114 ft 457 kts 334°
2026-05-05 03:49 33.79273 121.34771 37117 ft 457 kts 333°
2026-05-05 03:49 33.85187 121.31986 37120 ft 456 kts 333°
2026-05-05 03:50 33.91125 121.29176 37113 ft 456 kts 334°
2026-05-05 03:50 33.96993 121.26392 37118 ft 456 kts 334°
2026-05-05 03:51 34.02894 121.23586 37117 ft 456 kts 334°
2026-05-05 03:51 34.08825 121.20763 37109 ft 456 kts 334°
2026-05-05 03:52 34.14719 121.17951 37108 ft 455 kts 334°
2026-05-05 03:52 34.20569 121.15157 37106 ft 455 kts 334°
2026-05-05 03:53 34.26468 121.12334 37101 ft 455 kts 334°
2026-05-05 03:53 34.32351 121.09516 37103 ft 455 kts 334°
2026-05-05 03:54 34.38241 121.06690 37097 ft 455 kts 334°
2026-05-05 03:54 34.44085 121.03881 37100 ft 455 kts 334°
2026-05-05 03:55 34.49965 121.01051 37096 ft 454 kts 334°
2026-05-05 03:55 34.55827 120.98223 37091 ft 454 kts 334°
2026-05-05 03:56 34.61715 120.95382 37102 ft 454 kts 334°
2026-05-05 03:56 34.67572 120.92550 37095 ft 453 kts 334°
2026-05-05 03:57 34.73402 120.89727 37100 ft 453 kts 334°
2026-05-05 03:57 34.79272 120.86877 37096 ft 453 kts 335°
2026-05-05 03:58 34.85125 120.84034 37088 ft 453 kts 335°
2026-05-05 03:58 34.90958 120.81197 37095 ft 453 kts 335°
2026-05-05 03:59 34.96804 120.78347 37096 ft 452 kts 335°
2026-05-05 03:59 35.02669 120.75483 37087 ft 452 kts 335°
2026-05-05 04:00 35.08474 120.72643 37088 ft 452 kts 335°
2026-05-05 04:00 35.14324 120.69779 37091 ft 451 kts 335°
2026-05-05 04:01 35.20137 120.66952 37084 ft 451 kts 335°
2026-05-05 04:01 35.25981 120.64120 37089 ft 451 kts 335°
2026-05-05 04:02 35.31798 120.61289 37084 ft 451 kts 335°
2026-05-05 04:02 35.37620 120.58453 37084 ft 451 kts 335°
2026-05-05 04:03 35.43432 120.55640 37082 ft 450 kts 336°
2026-05-05 04:03 35.49229 120.52841 37071 ft 450 kts 336°
2026-05-05 04:04 35.55078 120.49996 37077 ft 450 kts 336°
2026-05-05 04:04 35.60884 120.47163 37071 ft 449 kts 336°
2026-05-05 04:05 35.66676 120.44334 37079 ft 449 kts 336°
2026-05-05 04:05 35.72457 120.41505 37071 ft 448 kts 336°
2026-05-05 04:06 35.78258 120.38660 37070 ft 448 kts 336°
2026-05-05 04:06 35.84039 120.35819 37068 ft 448 kts 336°
2026-05-05 04:07 35.89851 120.33016 37070 ft 449 kts 339°
2026-05-05 04:07 35.95900 120.31202 37062 ft 451 kts 349°
2026-05-05 04:08 36.02201 120.30759 37065 ft 455 kts 359°
2026-05-05 04:08 36.08452 120.31725 37073 ft 458 kts
2026-05-05 04:09 36.14711 120.33336 37058 ft 458 kts
2026-05-05 04:09 36.20938 120.34972 37058 ft 457 kts
2026-05-05 04:10 36.27176 120.36609 37049 ft 457 kts 10°
2026-05-05 04:10 36.33297 120.38719 37039 ft 458 kts 14°
2026-05-05 04:11 36.39376 120.41062 37046 ft 458 kts 14°
2026-05-05 04:11 36.45463 120.43420 37059 ft 458 kts 14°
2026-05-05 04:12 36.51535 120.45768 37053 ft 457 kts 14°
2026-05-05 04:12 36.57615 120.48120 37037 ft 456 kts 14°
2026-05-05 04:13 36.63613 120.50626 37037 ft 456 kts 15°
2026-05-05 04:13 36.69590 120.53191 37036 ft 456 kts 16°
2026-05-05 04:14 36.75572 120.55745 37034 ft 455 kts 16°
2026-05-05 04:14 36.81604 120.58318 37040 ft 455 kts 16°
2026-05-05 04:15 36.87570 120.60864 37027 ft 455 kts 16°
2026-05-05 04:15 36.93630 120.63108 37034 ft 452 kts 10°
2026-05-05 04:16 36.99807 120.64478 37033 ft 450 kts
2026-05-05 04:16 37.05959 120.65619 37028 ft 450 kts
2026-05-05 04:17 37.12134 120.66760 37034 ft 450 kts
2026-05-05 04:17 37.18324 120.67915 37034 ft 449 kts
2026-05-05 04:18 37.24503 120.69071 37026 ft 449 kts
2026-05-05 04:18 37.30691 120.70231 37024 ft 449 kts
2026-05-05 04:19 37.36860 120.71390 37041 ft 448 kts
2026-05-05 04:19 37.43019 120.72549 37017 ft 448 kts
2026-05-05 04:20 37.49171 120.73709 37012 ft 447 kts
2026-05-05 04:20 37.55333 120.74873 37017 ft 447 kts
2026-05-05 04:21 37.61494 120.75859 37006 ft 445 kts
2026-05-05 04:21 37.67631 120.76585 37018 ft 446 kts
2026-05-05 04:22 37.73824 120.77313 37011 ft 445 kts
2026-05-05 04:22 37.79924 120.78039 36884 ft 435 kts
2026-05-05 04:23 37.82929 120.78398 36527 ft 430 kts
2026-05-05 04:23 37.85871 120.78749 36007 ft 430 kts
2026-05-05 04:23 37.88863 120.79104 35489 ft 431 kts
2026-05-05 04:23 37.91838 120.79459 34996 ft 431 kts
2026-05-05 04:24 37.94825 120.79817 34514 ft 430 kts
2026-05-05 04:24 37.97776 120.80187 33935 ft 429 kts
2026-05-05 04:24 38.00679 120.81042 33238 ft 431 kts 18°
2026-05-05 04:25 38.06018 120.84513 31744 ft 437 kts 29°
2026-05-05 04:25 38.08638 120.86490 31157 ft 435 kts 30°
2026-05-05 04:25 38.11208 120.88439 30684 ft 431 kts 30°
2026-05-05 04:25 38.13770 120.90379 30176 ft 428 kts 30°
2026-05-05 04:26 38.16319 120.92302 29662 ft 426 kts 30°
2026-05-05 04:26 38.18875 120.94229 29163 ft 423 kts 30°
2026-05-05 04:26 38.21377 120.96117 28659 ft 421 kts 29°
2026-05-05 04:26 38.23819 120.98173 28102 ft 421 kts 39°
2026-05-05 04:27 38.25702 121.00990 27565 ft 423 kts 57°
2026-05-05 04:27 38.26975 121.04319 27105 ft 422 kts 64°
2026-05-05 04:27 38.28145 121.07727 26603 ft 420 kts 64°
2026-05-05 04:27 38.29302 121.11103 26109 ft 418 kts 64°
2026-05-05 04:28 38.30470 121.14497 25621 ft 416 kts 64°
2026-05-05 04:28 38.31616 121.17821 25142 ft 414 kts 64°
2026-05-05 04:28 38.32776 121.21175 24669 ft 412 kts 64°
2026-05-05 04:28 38.33930 121.24508 24214 ft 409 kts 64°
2026-05-05 04:29 38.35069 121.27798 23731 ft 406 kts 64°
2026-05-05 04:29 38.36189 121.31042 23133 ft 404 kts 64°
2026-05-05 04:29 38.37323 121.34320 22541 ft 401 kts 64°
2026-05-05 04:29 38.38433 121.37538 21950 ft 399 kts 64°
2026-05-05 04:30 38.39534 121.40735 21358 ft 397 kts 65°
2026-05-05 04:30 38.40684 121.43921 20765 ft 394 kts 59°
2026-05-05 04:30 38.42441 121.46523 20175 ft 388 kts 34°
2026-05-05 04:30 38.44820 121.47969 19656 ft 381 kts 13°
2026-05-05 04:31 38.47413 121.48634 19053 ft 379 kts
2026-05-05 04:31 38.50000 121.49287 18402 ft 380 kts 11°
2026-05-05 04:31 38.52585 121.50079 17816 ft 380 kts 13°
2026-05-05 04:31 38.55128 121.50903 17287 ft 376 kts 10°
2026-05-05 04:32 38.57665 121.51474 16772 ft 372 kts
2026-05-05 04:32 38.60243 121.51884 16257 ft 369 kts
2026-05-05 04:32 38.62771 121.52256 15715 ft 367 kts
2026-05-05 04:32 38.65288 121.52623 15185 ft 365 kts
2026-05-05 04:33 38.67799 121.52991 14650 ft 363 kts
2026-05-05 04:33 38.70294 121.53359 14109 ft 360 kts
2026-05-05 04:33 38.72795 121.53733 13551 ft 358 kts
2026-05-05 04:33 38.75259 121.54105 13035 ft 356 kts
2026-05-05 04:34 38.77675 121.54469 12727 ft 346 kts
2026-05-05 04:34 38.80026 121.54823 12474 ft 335 kts
2026-05-05 04:34 38.82309 121.55167 12257 ft 324 kts
2026-05-05 04:34 38.84509 121.55651 12024 ft 316 kts 19°
2026-05-05 04:35 38.86284 121.57181 11852 ft 309 kts 50°
2026-05-05 04:35 38.87216 121.59598 11585 ft 304 kts 81°
2026-05-05 04:35 38.87166 121.62277 11232 ft 301 kts 99°
2026-05-05 04:35 38.86799 121.64900 10830 ft 303 kts 100°
2026-05-05 04:36 38.86443 121.67587 10424 ft 304 kts 99°
2026-05-05 04:36 38.86162 121.70216 10252 ft 297 kts 97°
2026-05-05 04:36 38.85926 121.72831 10090 ft 288 kts 96°
2026-05-05 04:36 38.85721 121.75333 9906 ft 280 kts 96°
2026-05-05 04:37 38.85528 121.77763 9824 ft 271 kts 95°
2026-05-05 04:37 38.85342 121.80137 9822 ft 260 kts 95°
2026-05-05 04:37 38.85160 121.82441 9863 ft 260 kts 95°
2026-05-05 04:37 38.84981 121.84718 9660 ft 259 kts 95°
2026-05-05 04:38 38.84800 121.87014 9333 ft 260 kts 95°
2026-05-05 04:38 38.84620 121.89313 9044 ft 260 kts 95°
2026-05-05 04:38 38.84446 121.91609 8822 ft 256 kts 96°
2026-05-05 04:38 38.84276 121.93874 8569 ft 253 kts 96°
2026-05-05 04:39 38.84107 121.96097 8267 ft 253 kts 96°
2026-05-05 04:39 38.83934 121.98349 7962 ft 252 kts 96°
2026-05-05 04:39 38.83763 122.00563 7665 ft 251 kts 96°
2026-05-05 04:39 38.83612 122.02792 7363 ft 250 kts 90°
2026-05-05 04:40 38.84080 122.04891 7052 ft 247 kts 50°
2026-05-05 04:40 38.85398 122.06121 6813 ft 236 kts
2026-05-05 04:40 38.87009 122.06351 6478 ft 233 kts 358°
2026-05-05 04:40 38.88660 122.06424 6080 ft 238 kts 358°
2026-05-05 04:41 38.90311 122.06518 5751 ft 238 kts 353°
2026-05-05 04:41 38.91824 122.05908 5433 ft 224 kts 313°
2026-05-05 04:41 38.92654 122.04343 5168 ft 210 kts 280°
2026-05-05 04:41 38.92857 122.02497 4844 ft 209 kts 272°
2026-05-05 04:42 38.93029 122.00650 4504 ft 212 kts 272°
2026-05-05 04:42 38.93202 121.98761 4212 ft 211 kts 272°
2026-05-05 04:42 38.93361 121.96905 3928 ft 211 kts 271°
2026-05-05 04:42 38.93511 121.95033 3641 ft 210 kts 271°
2026-05-05 04:43 38.93653 121.93165 3360 ft 210 kts 270°
2026-05-05 04:43 38.93790 121.91303 3079 ft 209 kts 270°
2026-05-05 04:43 38.93922 121.89474 2907 ft 206 kts 270°
2026-05-05 04:43 38.94054 121.87638 2899 ft 202 kts 269°
2026-05-05 04:44 38.94179 121.85913 2873 ft 189 kts 269°
2026-05-05 04:44 38.94297 121.84293 2864 ft 175 kts 269°
2026-05-05 04:44 38.94407 121.82809 2889 ft 158 kts 268°
2026-05-05 04:44 38.94504 121.81468 2890 ft 149 kts 268°
2026-05-05 04:45 38.94596 121.80154 2901 ft 148 kts 268°
2026-05-05 04:45 38.94688 121.78832 2888 ft 148 kts 268°
2026-05-05 04:45 38.94783 121.77515 2888 ft 148 kts 268°
2026-05-05 04:45 38.94879 121.76167 2900 ft 159 kts 268°
2026-05-05 04:46 38.94985 121.74674 2949 ft 174 kts 268°
2026-05-05 04:46 38.95103 121.73120 2789 ft 177 kts 269°
2026-05-05 04:46 38.95226 121.71538 2541 ft 175 kts 269°
2026-05-05 04:46 38.95345 121.69998 2320 ft 175 kts 268°
2026-05-05 04:47 38.95462 121.68442 2088 ft 175 kts 268°
2026-05-05 04:47 38.95580 121.66888 1860 ft 174 kts 267°
2026-05-05 04:47 38.95697 121.65343 1627 ft 173 kts 267°
2026-05-05 04:47 38.95812 121.63821 1399 ft 172 kts 268°
2026-05-05 04:48 38.95927 121.62315 1174 ft 165 kts 268°
2026-05-05 04:48 38.96037 121.60870 957 ft 158 kts 269°
2026-05-05 04:48 38.96151 121.59503 710 ft 155 kts 269°
2026-05-05 04:48 38.96252 121.58134 480 ft 151 kts 269°
2026-05-05 04:49 38.96343 121.56792 310 ft 152 kts 270°
2026-05-05 04:49 38.96449 121.55447 147 ft 151 kts 271°
2026-05-05 04:49 38.96533 121.54163 123 ft 135 kts 277°
2026-05-05 04:49 38.96604 121.53217 123 ft 80 kts 278°
2026-05-05 04:50 38.96531 121.52725 123 ft 29 kts 252°
2026-05-05 04:50 38.96467 121.52645 123 ft 4 kts 173°
2026-05-05 04:50 38.96435 121.52672 123 ft 6 kts 126°
2026-05-05 04:50 38.96427 121.52740 123 ft 8 kts 88°
2026-05-05 04:51 38.96431 121.52824 123 ft 10 kts 85°
2026-05-05 04:51 38.96439 121.52917 123 ft 10 kts 91°
2026-05-05 04:51 38.96393 121.52983 123 ft 10 kts 175°
2026-05-05 04:51 38.96346 121.53007 123 ft 7 kts 150°
2026-05-05 04:52 38.96296 121.53038 123 ft 8 kts 154°
2026-05-05 04:52 38.96259 121.53061 123 ft 3 kts 154°
2026-05-05 04:52 38.96254 121.53065 123 ft 0 kts 153°
2026-05-05 04:52 38.96252 121.53066 123 ft 0 kts 153°
2026-05-05 04:53 38.96250 121.53068 123 ft 0 kts 153°
2026-05-05 04:53 38.96252 121.53065 123 ft 0 kts 153°
2026-05-05 04:53 38.96252 121.53066 123 ft 0 kts 153°